Regional Weather Roundup
Issued by NWS

Home | Current Version | Previous Version | Graphics & Text | Print | Product List | Glossary On
Versions: 1 2 3 4 5 6 7 8 9 10 11 12 13 14 15 16 17 18 19 20 21 22 23 24 25 26 27 28 29 30 31 32 33 34 35 36 37 38 39 40 41 42 43 44 45 46 47 48 49 50
000
ASUS43 KFSD 201610
RWRSD

WEATHER ROUNDUP FOR SOUTH DAKOTA
NATIONAL WEATHER SERVICE SIOUX FALLS SD
1000 AM CST SAT JAN 20 2018

NOTE: "FAIR" INDICATES FEW OR NO CLOUDS BELOW 12,000 FEET WITH NO
SIGNIFICANT WEATHER AND/OR OBSTRUCTIONS TO VISIBILITY.


SDZ001>005-009-010-012>017-201700-
NORTHWEST AND NORTH CENTRAL SOUTH DAKOTA

CITY           SKY/WX    TMP DP  RH WIND       PRES   REMARKS
BUFFALO          N/A     32  28  85 W7        29.83R WCI  26
FAITH            N/A     35  34  96 NW7       29.89R WCI  29
MOBRIDGE       PTSUNNY   38  33  82 NW3       29.85R
$$

SDZ012>016-024>037-041>051-057-063-072>074-201700-
SOUTHWEST AND SOUTH CENTRAL SOUTH DAKOTA

CITY           SKY/WX    TMP DP  RH WIND       PRES   REMARKS
RAPID CTY ARPT CLOUDY    35  31  85 N6        29.89S
PIERRE         CLOUDY    38  34  85 N10       29.89
CUSTER         CLOUDY    30  23  75 N5        29.84R WCI  25
ELLSWORTH AFB  CLOUDY    35  32  90 NW9       29.89R WCI  27
PHILIP         CLOUDY    34  34 100 W3        29.91R
PINE RIDGE     CLOUDY    29  27  92 CALM      29.89R
SPEARFISH        N/A     32  28  86 W5        29.90R FOG     WCI  27
WINNER         FAIR      32  29  88 CALM      29.91R
$$

SDZ004>011-016>023-039-040-201700-
NORTHEAST SOUTH DAKOTA

CITY           SKY/WX    TMP DP  RH WIND       PRES   REMARKS
ABERDEEN       CLOUDY    35  32  88 CALM      29.88R
WATERTOWN      CLOUDY    33  30  88 N5        29.85R WCI  29
BROOKINGS      CLOUDY    30  29  96 MISG      29.88R
SISSETON         N/A     40  29  64 W10       29.85S
$$

SDZ017-020-022-023-036>040-048>070-201700-
SOUTHEAST SOUTH DAKOTA

CITY           SKY/WX    TMP DP  RH WIND       PRES   REMARKS
SIOUX FALLS    CLOUDY    32  30  92 CALM      29.89R
HURON          MOSUNNY   35  31  85 W3        29.90R
CHAMBERLAIN    MOSUNNY   32  32 100 W5        29.91R WCI  27
MITCHELL       MOSUNNY   30  28  92 CALM      29.91R
YANKTON        CLOUDY    32  30  92 CALM      29.90R
$$

ABBREVIATIONS USED IN REMARKS
   TC - TEMPERATURE IN CELSIUS
  WCI - WIND CHILL INDEX
   HX - HEAT INDEX
  VSB - VISIBILITY





USA.gov is the U.S. government's official web portal to all federal, state and local government web resources and services.